Tracking 31027 objects as of 19-Jul-2025
HD Live streaming from Space Station
objects crossing your sky now

STARLINK-5467

Track STARLINK-5467 now!
10-day predictions
STARLINK-5467 is classified as:


NORAD ID: 55660
Int'l Code: 2023-021AJ
Perigee: 577.2 km
Apogee: 581.2 km
Inclination: 70.0 °
Period: 96.1 minutes
Semi major axis: 6950 km
RCS: Unknown
Launch date: February 17, 2023
Source: United States (US)
Launch site: AIR FORCE WESTERN TEST RANGE (AFWTR)
Your satellite tracking list
STARLINK-31611
Track 1 satellite(s)




NASA's NSSDC Master Catalog

Two Line Element Set (TLE):
1 55660U 23021AJ  25199.79593987 -.00000442  00000-0 -29273-4 0  9992
2 55660  70.0002  34.0288 0002859 269.7109  90.3723 14.98330617133953
Source of the keplerian elements: AFSPC